Regional Weather Roundup
Issued by NWS

Home | Current Version | Previous Version | Text Only | Print | Product List | Glossary On
Versions: 1 2 3 4 5 6 7 8 9 10 11 12 13 14 15 16 17 18 19 20 21 22 23 24 25 26 27 28 29 30 31 32 33 34 35 36 37 38 39 40 41 42 43 44 45 46 47 48 49 50
000
ASUS45 KREV 211810
RWRNV
NEVADA REGIONAL WEATHER ROUNDUP
NATIONAL WEATHER SERVICE RENO NV
1100 AM PDT MON AUG 21 2017

NOTE: "FAIR" INDICATES FEW OR NO CLOUDS BELOW 12,000 FEET WITH NO
SIGNIFICANT WEATHER AND/OR OBSTRUCTIONS TO VISIBILITY.

NVZ001-003-004-211900-
WESTERN NEVADA

CITY           SKY/WX    TMP DP  RH WIND       PRES   REMARKS
RENO           MOSUNNY   76  46  34 E3        30.15S
6HR MIN TEMP:  62; 6HR MAX TEMP:  77;

MINDEN         FAIR      68  48  49 CALM      30.17S
FALLON         SUNNY     79  34  19 CALM      30.12R
6HR MIN TEMP:  57; 6HR MAX TEMP:  80;

LOVELOCK       SUNNY     77  32  19 NE7       30.12R
6HR MIN TEMP:  65; 6HR MAX TEMP:  81;

HAWTHORNE      SUNNY     79  43  27 NW6       30.13S
$$

NVZ002-CAZ072-073-211900-
NORTHERN AND CENTRAL SIERRA

CITY           SKY/WX    TMP DP  RH WIND       PRES   REMARKS
S. LAKE TAHOE  SUNNY     67  52  58 CALM      30.26S
6HR MIN TEMP:  45; 6HR MAX TEMP:  68;

TRUCKEE        MOSUNNY   61  54  77 CALM      30.25S
SQUAW VLY 8000   N/A     61  43  51 SE2         N/A
SUSANVILLE     SUNNY     72  48  43 CALM      30.14S
MAMMOTH LAKES  FAIR      65  35  33 E10       30.35S
6HR MIN TEMP:  41; 6HR MAX TEMP:  66;

BRIDGEPORT     FAIR      66  41  40 CALM      30.28S
$$

NVZ030-031-036-211900-
NORTHERN NEVADA

CITY           SKY/WX    TMP DP  RH WIND       PRES   REMARKS
ELKO           SUNNY     74  34  23 E3        30.20S
6HR MIN TEMP:  51; 6HR MAX TEMP:  75;

WINNEMUCCA     SUNNY     76  30  18 NE10G25   30.15S
6HR MIN TEMP:  53; 6HR MAX TEMP:  77;

WENDOVER       SUNNY     78  37  22 CALM      30.15R
$$

NVZ035-037-211900-
CENTRAL NEVADA

CITY           SKY/WX    TMP DP  RH WIND       PRES   REMARKS
ELY            SUNNY     76  35  22 CALM      30.27S
6HR MIN TEMP:  47; 6HR MAX TEMP:  77;

EUREKA           N/A     73  38  27 N6        30.25R
6HR MIN TEMP:  47; 6HR MAX TEMP:  77;

$$

NVZ013-014-211900-
SOUTH CENTRAL NEVADA

CITY           SKY/WX    TMP DP  RH WIND       PRES   REMARKS
TONOPAH        PTSUNNY   76  40  27 S14       30.27S
6HR MIN TEMP:  57; 6HR MAX TEMP:  76;

$$

NVZ017-020-022-211900-
SOUTHERN NEVADA

CITY           SKY/WX    TMP DP  RH WIND       PRES   REMARKS
LAS VEGAS      CLOUDY    79  61  53 NE13      30.10R
6HR MIN TEMP:  79; 6HR MAX TEMP:  87; 6HR PCP:  0.01;

N. LAS VEGAS   CLOUDY   N/A N/A N/A N10       30.09F
                                      6HR PCP:  0.08;

NELLIS AFB     LGT RAIN  77  63  61 S3        30.09R
6HR MIN TEMP:  78; 6HR MAX TEMP:  89; 6HR PCP: TRACE;

HENDERSON      PTSUNNY   80  60  50 NE9       30.13R
6HR MIN TEMP:  79; 6HR MAX TEMP:  84; 6HR PCP: TRACE;

MERCURY        PTSUNNY   75  56  51 NE3       30.14R
6HR MIN TEMP:  69; 6HR MAX TEMP:  81; 6HR PCP: TRACE;

$$



USA.gov is the U.S. government's official web portal to all federal, state and local government web resources and services.